owner,sensor,date,latitude,longitude,vertical_datum,direction_of_sea_water_velocity,sea_water_speed,upward_sea_water_velocity,qcFlag 
TABS,ioos:station:wmo:42047:1,2009-02-01T00:00:00Z,27.8966,-93.5973,2.0,101.002182504,23.0027933086,-99999.0,'1111122,1111122,1199999999' 
TABS,ioos:station:wmo:42047:1,2009-02-01T00:30:00Z,27.8966,-93.5973,2.0,104.997550142,23.9974269454,-99999.0,'1111122,1111122,1199999999' 
TABS,ioos:station:wmo:42047:1,2009-02-01T01:00:00Z,27.8966,-93.5973,2.0,110.996369547,22.9969237073,-99999.0,'1111122,1111122,1199999999' 
TABS,ioos:station:wmo:42047:1,2009-02-01T01:30:00Z,27.8966,-93.5973,2.0,110.000730569,24.9976518897,-99999.0,'1111122,1111122,1199999999' 
TABS,ioos:station:wmo:42047:1,2009-02-01T02:00:00Z,27.8966,-93.5973,2.0,115.996791951,22.9968541327,-99999.0,'1111122,1111122,1199999999' 
TABS,ioos:station:wmo:42047:1,2009-02-01T02:30:00Z,27.8966,-93.5973,2.0,115.999158972,23.9986520455,-99999.0,'1111122,1111122,1199999999' 
TABS,ioos:station:wmo:42047:1,2009-02-01T03:00:00Z,27.8966,-93.5973,2.0,113.005980151,24.9982599394,-99999.0,'1111122,1111122,1199999999' 
TABS,ioos:station:wmo:42047:1,2009-02-01T03:30:00Z,27.8966,-93.5973,2.0,116.995453158,25.0044176097,-99999.0,'1111122,1111122,1199999999' 
TABS,ioos:station:wmo:42047:1,2009-02-01T04:00:00Z,27.8966,-93.5973,2.0,110.988895076,21.9996818159,-99999.0,'1111122,1111122,1199999999' 
TABS,ioos:station:wmo:42047:1,2009-02-01T04:30:00Z,27.8966,-93.5973,2.0,110.988895076,21.9996818159,-99999.0,'1111122,1111122,1199999999' 
TABS,ioos:station:wmo:42047:1,2009-02-01T05:00:00Z,27.8966,-93.5973,2.0,110.996369547,22.9969237073,-99999.0,'1111122,1111122,1199999999' 
TABS,ioos:station:wmo:42047:1,2009-02-01T05:30:00Z,27.8966,-93.5973,2.0,109.992008566,21.9954381634,-99999.0,'1111122,1111122,1199999999' 
TABS,ioos:station:wmo:42047:1,2009-02-01T06:00:00Z,27.8966,-93.5973,2.0,115.998719247,19.0030339683,-99999.0,'1111122,1111122,1199999999' 
TABS,ioos:station:wmo:42047:1,2009-02-01T06:30:00Z,27.8966,-93.5973,2.0,115.99420931,21.9950562627,-99999.0,'1111122,1111122,1199999999' 
TABS,ioos:station:wmo:42047:1,2009-02-01T07:00:00Z,27.8966,-93.5973,2.0,113.988671355,19.9972448102,-99999.0,'1111122,1111122,1199999999' 
TABS,ioos:station:wmo:42047:1,2009-02-01T07:30:00Z,27.8966,-93.5973,2.0,118.992407939,17.0004264652,-99999.0,'1111122,1111122,1199999999' 
TABS,ioos:station:wmo:42047:1,2009-02-01T08:00:00Z,27.8966,-93.5973,2.0,116.981391045,16.001724907,-99999.0,'1111122,1111122,1199999999' 
TABS,ioos:station:wmo:42047:1,2009-02-01T08:30:00Z,27.8966,-93.5973,2.0,122.009721825,13.9983320435,-99999.0,'1111122,1111122,1199999999' 
TABS,ioos:station:wmo:42047:1,2009-02-01T09:00:00Z,27.8966,-93.5973,2.0,122.998439183,17.0027997694,-99999.0,'1111122,1111122,1199999999' 
TABS,ioos:station:wmo:42047:1,2009-02-01T09:30:00Z,27.8966,-93.5973,2.0,105.008913677,20.0023698596,-99999.0,'1111122,1111122,1199999999' 
TABS,ioos:station:wmo:42047:1,2009-02-01T10:00:00Z,27.8966,-93.5973,2.0,300.002276456,36.9974539665,-99999.0,'1111122,1111122,1199999999' 
TABS,ioos:station:wmo:42047:1,2009-02-01T10:30:00Z,27.8966,-93.5973,2.0,103.982212707,18.0034274515,-99999.0,'1111122,1111122,1199999999' 
TABS,ioos:station:wmo:42047:1,2009-02-01T11:00:00Z,27.8966,-93.5973,2.0,106.995052262,17.9958800841,-99999.0,'1111122,1111122,1199999999' 
TABS,ioos:station:wmo:42047:1,2009-02-01T11:30:00Z,27.8966,-93.5973,2.0,107.987334652,17.0009235043,-99999.0,'1111122,1111122,1199999999' 
TABS,ioos:station:wmo:42047:1,2009-02-01T12:00:00Z,27.8966,-93.5973,2.0,116.981391045,16.001724907,-99999.0,'1111122,1111122,1199999999' 
TABS,ioos:station:wmo:42047:1,2009-02-01T12:30:00Z,27.8966,-93.5973,2.0,135.0,15.9947553904,-99999.0,'1111122,1111122,1199999999' 
TABS,ioos:station:wmo:42047:1,2009-02-01T13:00:00Z,27.8966,-93.5973,2.0,146.008774777,18.9959706254,-99999.0,'1111122,1111122,1199999999' 
TABS,ioos:station:wmo:42047:1,2009-02-01T13:30:00Z,27.8966,-93.5973,2.0,149.999272219,19.9995599952,-99999.0,'1111122,1111122,1199999999' 
TABS,ioos:station:wmo:42047:1,2009-02-01T14:00:00Z,27.8966,-93.5973,2.0,155.998719034,20.9953328147,-99999.0,'1111122,1111122,1199999999' 
TABS,ioos:station:wmo:42047:1,2009-02-01T14:30:00Z,27.8966,-93.5973,2.0,156.013553649,16.9979116364,-99999.0,'1111122,1111122,1199999999' 
TABS,ioos:station:wmo:42047:1,2009-02-01T15:00:00Z,27.8966,-93.5973,2.0,159.016476098,16.0011405843,-99999.0,'1111122,1111122,1199999999' 
TABS,ioos:station:wmo:42047:1,2009-02-01T15:30:00Z,27.8966,-93.5973,2.0,163.998398722,14.0025426263,-99999.0,'1111122,1111122,1199999999' 
TABS,ioos:station:wmo:42047:1,2009-02-01T16:00:00Z,27.8966,-93.5973,2.0,164.99145071,11.0054259345,-99999.0,'1111122,1111122,1199999999' 
TABS,ioos:station:wmo:42047:1,2009-02-01T16:30:00Z,27.8966,-93.5973,2.0,170.9851693,11.9982040323,-99999.0,'1111122,1111122,1199999999' 
TABS,ioos:station:wmo:42047:1,2009-02-01T17:00:00Z,27.8966,-93.5973,2.0,163.998398722,14.0025426263,-99999.0,'1111122,1111122,1199999999' 
TABS,ioos:station:wmo:42047:1,2009-02-01T17:30:00Z,27.8966,-93.5973,2.0,168.016030628,13.0033995555,-99999.0,'1111122,1111122,1199999999' 
TABS,ioos:station:wmo:42047:1,2009-02-01T18:30:00Z,27.8966,-93.5973,2.0,163.998398722,14.0025426263,-99999.0,'1111122,1111122,1199999999' 
TABS,ioos:station:wmo:42047:1,2009-02-01T19:00:00Z,27.8966,-93.5973,2.0,169.996168159,16.0033121572,-99999.0,'1111122,1111122,1199999999' 
TABS,ioos:station:wmo:42047:1,2009-02-01T19:30:00Z,27.8966,-93.5973,2.0,175.984912489,10.9969904974,-99999.0,'1111122,1111122,1199999999' 
TABS,ioos:station:wmo:42047:1,2009-02-01T20:00:00Z,27.8966,-93.5973,2.0,171.000283184,10.9953626589,-99999.0,'1111122,1111122,1199999999' 
TABS,ioos:station:wmo:42047:1,2009-02-01T20:30:00Z,27.8966,-93.5973,2.0,196.996391774,82.0015688874,-99999.0,'1111122,1111122,1199999999' 
TABS,ioos:station:wmo:42047:1,2009-02-01T21:00:00Z,27.8966,-93.5973,2.0,158.000017002,15.002416472,-99999.0,'1111122,1111122,1199999999' 
TABS,ioos:station:wmo:42047:1,2009-02-01T21:30:00Z,27.8966,-93.5973,2.0,98.0023423571,26.0032094173,-99999.0,'1111122,1111122,1199999999' 
TABS,ioos:station:wmo:42047:1,2009-02-01T22:00:00Z,27.8966,-93.5973,2.0,159.011104924,10.9998409079,-99999.0,'1111122,1111122,1199999999' 
TABS,ioos:station:wmo:42047:1,2009-02-01T22:30:00Z,27.8966,-93.5973,2.0,161.983261119,12.9973074135,-99999.0,'1111122,1111122,1199999999' 
TABS,ioos:station:wmo:42047:1,2009-02-01T23:00:00Z,27.8966,-93.5973,2.0,158.988931823,14.0009035423,-99999.0,'1111122,1111122,1199999999' 
TABS,ioos:station:wmo:42047:1,2009-02-01T23:30:00Z,27.8966,-93.5973,2.0,152.02527008,9.99824984685,-99999.0,'1111122,1111122,1199999999' 
TABS,ioos:station:wmo:42047:1,2009-02-02T00:00:00Z,27.8966,-93.5973,2.0,142.984205814,10.9960356493,-99999.0,'1111122,1111122,1199999999' 
TABS,ioos:station:wmo:42047:1,2009-02-02T00:30:00Z,27.8966,-93.5973,2.0,149.994496671,11.9980040007,-99999.0,'1111122,1111122,1199999999' 
TABS,ioos:station:wmo:42047:1,2009-02-02T01:00:00Z,27.8966,-93.5973,2.0,161.983261119,12.9973074135,-99999.0,'1111122,1111122,1199999999' 
TABS,ioos:station:wmo:42047:1,2009-02-02T01:30:00Z,27.8966,-93.5973,2.0,148.975773011,12.9995999938,-99999.0,'1111122,1111122,1199999999' 
TABS,ioos:station:wmo:42047:1,2009-02-02T02:00:00Z,27.8966,-93.5973,2.0,155.012402925,12.9964802928,-99999.0,'1111122,1111122,1199999999' 
TABS,ioos:station:wmo:42047:1,2009-02-02T02:30:00Z,27.8966,-93.5973,2.0,125.004821817,10.9998272714,-99999.0,'1111122,1111122,1199999999' 
TABS,ioos:station:wmo:42047:1,2009-02-02T03:00:00Z,27.8966,-93.5973,2.0,159.016476098,16.0011405843,-99999.0,'1111122,1111122,1199999999' 
TABS,ioos:station:wmo:42047:1,2009-02-02T03:30:00Z,27.8966,-93.5973,2.0,135.0,12.9966226382,-99999.0,'1111122,1111122,1199999999' 
TABS,ioos:station:wmo:42047:1,2009-02-02T04:00:00Z,27.8966,-93.5973,2.0,135.0,11.0025815153,-99999.0,'1111122,1111122,1199999999' 
TABS,ioos:station:wmo:42047:1,2009-02-02T04:30:00Z,27.8966,-93.5973,2.0,150.003679194,13.0014460734,-99999.0,'1111122,1111122,1199999999' 
TABS,ioos:station:wmo:42047:1,2009-02-02T05:00:00Z,27.8966,-93.5973,2.0,146.005381857,12.0011082822,-99999.0,'1111122,1111122,1199999999' 
TABS,ioos:station:wmo:42047:1,2009-02-02T05:30:00Z,27.8966,-93.5973,2.0,162.007947187,9.00011111043,-99999.0,'1111122,1111122,1199999999' 
TABS,ioos:station:wmo:42047:1,2009-02-02T06:00:00Z,27.8966,-93.5973,2.0,156.016732112,13.9985784993,-99999.0,'1111122,1111122,1199999999' 
TABS,ioos:station:wmo:42047:1,2009-02-02T06:30:00Z,27.8966,-93.5973,2.0,147.013887999,6.99807116283,-99999.0,'1111122,1111122,1199999999' 
TABS,ioos:station:wmo:42047:1,2009-02-02T07:00:00Z,27.8966,-93.5973,2.0,145.99250758,4.0049968789,-99999.0,'1111122,1111122,1199999999' 
TABS,ioos:station:wmo:42047:1,2009-02-02T07:30:00Z,27.8966,-93.5973,2.0,162.007947187,9.00011111043,-99999.0,'1111122,1111122,1199999999' 
TABS,ioos:station:wmo:42047:1,2009-02-02T08:00:00Z,27.8966,-93.5973,2.0,202.972721331,4.99624859269,-99999.0,'1111122,1111122,1199999999' 
TABS,ioos:station:wmo:42047:1,2009-02-02T08:30:00Z,27.8966,-93.5973,2.0,167.005383208,4.00249921924,-99999.0,'1111122,1111122,1199999999' 
TABS,ioos:station:wmo:42047:1,2009-02-02T09:00:00Z,27.8966,-93.5973,2.0,146.946084314,3.99686126855,-99999.0,'1111122,1111122,1199999999' 
TABS,ioos:station:wmo:42047:1,2009-02-02T09:30:00Z,27.8966,-93.5973,2.0,135.0,4.00222438152,-99999.0,'1111122,1111122,1199999999' 
TABS,ioos:station:wmo:42047:1,2009-02-02T10:00:00Z,27.8966,-93.5973,2.0,90.0,1.0,-99999.0,'1113322,1111122,1199999999' 
TABS,ioos:station:wmo:42047:1,2009-02-02T10:30:00Z,27.8966,-93.5973,2.0,117.077751403,1.99912480851,-99999.0,'1111122,1111122,1199999999' 
TABS,ioos:station:wmo:42047:1,2009-02-02T11:00:00Z,27.8966,-93.5973,2.0,71.927677851,2.99789926449,-99999.0,'1111122,1111122,1199999999' 
TABS,ioos:station:wmo:42047:1,2009-02-02T12:00:00Z,27.8966,-93.5973,2.0,54.0231297129,5.00460787675,-99999.0,'1111122,1111122,1199999999' 
TABS,ioos:station:wmo:42047:1,2009-02-02T12:30:00Z,27.8966,-93.5973,2.0,45.0,2.99813275223,-99999.0,'1111122,1111122,1199999999' 
TABS,ioos:station:wmo:42047:1,2009-02-02T13:00:00Z,27.8966,-93.5973,2.0,45.0,5.99626550446,-99999.0,'1111122,1111122,1199999999' 
TABS,ioos:station:wmo:42047:1,2009-02-02T13:30:00Z,27.8966,-93.5973,2.0,60.0183606312,6.00333240792,-99999.0,'1111122,1111122,1199999999' 
TABS,ioos:station:wmo:42047:1,2009-02-02T14:00:00Z,27.8966,-93.5973,2.0,79.9720912326,4.99632865212,-99999.0,'1111122,1111122,1199999999' 
TABS,ioos:station:wmo:42047:1,2009-02-02T14:30:00Z,27.8966,-93.5973,2.0,60.0183606312,6.00333240792,-99999.0,'1111122,1111122,1199999999' 
TABS,ioos:station:wmo:42047:1,2009-02-02T15:00:00Z,27.8966,-93.5973,2.0,64.9732125867,6.99694218927,-99999.0,'1111122,1111122,1199999999' 
TABS,ioos:station:wmo:42047:1,2009-02-02T15:30:00Z,27.8966,-93.5973,2.0,90.0,5.0,-99999.0,'1111122,1111122,1199999999' 
TABS,ioos:station:wmo:42047:1,2009-02-02T16:00:00Z,27.8966,-93.5973,2.0,90.0,5.0,-99999.0,'1111122,1111122,1199999999' 
TABS,ioos:station:wmo:42047:1,2009-02-02T16:30:00Z,27.8966,-93.5973,2.0,84.0043240672,8.99922774465,-99999.0,'1111122,1111122,1199999999' 
TABS,ioos:station:wmo:42047:1,2009-02-02T17:00:00Z,27.8966,-93.5973,2.0,90.0,10.0,-99999.0,'1111122,1111122,1199999999' 
TABS,ioos:station:wmo:42047:1,2009-02-02T17:30:00Z,27.8966,-93.5973,2.0,95.9815043855,11.9953074158,-99999.0,'1111122,1111122,1199999999' 
TABS,ioos:station:wmo:42047:1,2009-02-02T18:00:00Z,27.8966,-93.5973,2.0,90.0,14.0,-99999.0,'1111122,1111122,1199999999' 
TABS,ioos:station:wmo:42047:1,2009-02-02T18:30:00Z,27.8966,-93.5973,2.0,99.0103434029,15.005162445,-99999.0,'1111122,1111122,1199999999' 
TABS,ioos:station:wmo:42047:1,2009-02-02T19:00:00Z,27.8966,-93.5973,2.0,94.9930922086,17.0045288085,-99999.0,'1111122,1111122,1199999999' 
TABS,ioos:station:wmo:42047:1,2009-02-02T19:30:00Z,27.8966,-93.5973,2.0,99.0053976999,19.9964846911,-99999.0,'1111122,1111122,1199999999' 
TABS,ioos:station:wmo:42047:1,2009-02-02T20:00:00Z,27.8966,-93.5973,2.0,98.9914357556,19.0035207264,-99999.0,'1111122,1111122,1199999999' 
TABS,ioos:station:wmo:42047:1,2009-02-02T20:30:00Z,27.8966,-93.5973,2.0,97.9851364108,19.0042626797,-99999.0,'1111122,1111122,1199999999' 
TABS,ioos:station:wmo:42047:1,2009-02-02T21:00:00Z,27.8966,-93.5973,2.0,122.005383208,30.0000599999,-99999.0,'1111122,1111122,1199999999' 
TABS,ioos:station:wmo:42047:1,2009-02-02T21:30:00Z,27.8966,-93.5973,2.0,106.991950818,26.9986018156,-99999.0,'1111122,1111122,1199999999' 
TABS,ioos:station:wmo:42047:1,2009-02-02T22:00:00Z,27.8966,-93.5973,2.0,105.009051964,28.999313785,-99999.0,'1111122,1111122,1199999999' 
TABS,ioos:station:wmo:42047:1,2009-02-02T22:30:00Z,27.8966,-93.5973,2.0,106.997418869,30.0004833294,-99999.0,'1111122,1111122,1199999999' 
TABS,ioos:station:wmo:42047:1,2009-02-02T23:00:00Z,27.8966,-93.5973,2.0,110.99778732,28.9954651627,-99999.0,'1111122,1111122,1199999999' 
TABS,ioos:station:wmo:42047:1,2009-02-02T23:30:00Z,27.8966,-93.5973,2.0,107.994917605,27.9996321404,-99999.0,'1111122,1111122,1199999999' 
TABS,ioos:station:wmo:42047:1,2009-02-03T00:00:00Z,27.8966,-93.5973,2.0,113.002418873,27.9960086441,-99999.0,'1111122,1111122,1199999999' 
TABS,ioos:station:wmo:42047:1,2009-02-03T00:30:00Z,27.8966,-93.5973,2.0,110.000730569,24.9976518897,-99999.0,'1111122,1111122,1199999999' 
TABS,ioos:station:wmo:42047:1,2009-02-03T01:00:00Z,27.8966,-93.5973,2.0,108.009492934,22.996717157,-99999.0,'1111122,1111122,1199999999' 
TABS,ioos:station:wmo:42047:1,2009-02-03T01:30:00Z,27.8966,-93.5973,2.0,104.997846182,25.0016679444,-99999.0,'1111122,1111122,1199999999' 
TABS,ioos:station:wmo:42047:1,2009-02-03T02:00:00Z,27.8966,-93.5973,2.0,101.002182504,23.0027933086,-99999.0,'1111122,1111122,1199999999' 
TABS,ioos:station:wmo:42047:1,2009-02-03T02:30:00Z,27.8966,-93.5973,2.0,104.997550142,23.9974269454,-99999.0,'1111122,1111122,1199999999' 
TABS,ioos:station:wmo:42047:1,2009-02-03T03:00:00Z,27.8966,-93.5973,2.0,100.999791251,24.9992899899,-99999.0,'1111122,1111122,1199999999' 
TABS,ioos:station:wmo:42047:1,2009-02-03T03:30:00Z,27.8966,-93.5973,2.0,97.9984502321,24.00351016,-99999.0,'1111122,1111122,1199999999' 
TABS,ioos:station:wmo:42047:1,2009-02-03T04:00:00Z,27.8966,-93.5973,2.0,95.9907476804,22.9955843587,-99999.0,'1111122,1111122,1199999999' 
TABS,ioos:station:wmo:42047:1,2009-02-03T04:30:00Z,27.8966,-93.5973,2.0,96.0027584622,24.0016041131,-99999.0,'1111122,1111122,1199999999' 
TABS,ioos:station:wmo:42047:1,2009-02-03T05:00:00Z,27.8966,-93.5973,2.0,93.0031526988,25.0043396234,-99999.0,'1111122,1111122,1199999999' 
TABS,ioos:station:wmo:42047:1,2009-02-03T05:30:00Z,27.8966,-93.5973,2.0,86.009640789,23.9981770141,-99999.0,'1111122,1111122,1199999999' 
TABS,ioos:station:wmo:42047:1,2009-02-03T06:00:00Z,27.8966,-93.5973,2.0,80.0102720173,20.0032722323,-99999.0,'1111122,1111122,1199999999' 
TABS,ioos:station:wmo:42047:1,2009-02-03T06:30:00Z,27.8966,-93.5973,2.0,59.9959013875,16.9978939872,-99999.0,'1111122,1111122,1199999999' 
TABS,ioos:station:wmo:42047:1,2009-02-03T07:00:00Z,27.8966,-93.5973,2.0,43.9869176232,15.9972560147,-99999.0,'1111122,1111122,1199999999' 
TABS,ioos:station:wmo:42047:1,2009-02-03T07:30:00Z,27.8966,-93.5973,2.0,15.0006400266,15.9950648639,-99999.0,'1111122,1111122,1199999999' 
TABS,ioos:station:wmo:42047:1,2009-02-03T08:00:00Z,27.8966,-93.5973,2.0,0.0,14.0,-99999.0,'1111122,1114422,1199999999' 
TABS,ioos:station:wmo:42047:1,2009-02-03T08:30:00Z,27.8966,-93.5973,2.0,352.98662173,14.0047884668,-99999.0,'1111122,1111122,1199999999' 
TABS,ioos:station:wmo:42047:1,2009-02-03T09:00:00Z,27.8966,-93.5973,2.0,332.997930048,17.0035555105,-99999.0,'1111122,1111122,1199999999' 
TABS,ioos:station:wmo:42047:1,2009-02-03T09:30:00Z,27.8966,-93.5973,2.0,330.0047283,21.0030021664,-99999.0,'1111122,1111122,1199999999' 
TABS,ioos:station:wmo:42047:1,2009-02-03T10:00:00Z,27.8966,-93.5973,2.0,327.003429665,21.9982476575,-99999.0,'1111122,1111122,1199999999' 
TABS,ioos:station:wmo:42047:1,2009-02-03T10:30:00Z,27.8966,-93.5973,2.0,326.99388433,23.0022824954,-99999.0,'1111122,1111122,1199999999' 
TABS,ioos:station:wmo:42047:1,2009-02-03T11:00:00Z,27.8966,-93.5973,2.0,330.001763262,23.0012260543,-99999.0,'1111122,1111122,1199999999' 
TABS,ioos:station:wmo:42047:1,2009-02-03T11:30:00Z,27.8966,-93.5973,2.0,329.006012219,26.0026190989,-99999.0,'1111122,1111122,1199999999' 
TABS,ioos:station:wmo:42047:1,2009-02-03T12:00:00Z,27.8966,-93.5973,2.0,326.996304984,25.0049055187,-99999.0,'1111122,1111122,1199999999' 
TABS,ioos:station:wmo:42047:1,2009-02-03T12:30:00Z,27.8966,-93.5973,2.0,323.01073632,24.0000520833,-99999.0,'1111122,1111122,1199999999' 
TABS,ioos:station:wmo:42047:1,2009-02-03T13:00:00Z,27.8966,-93.5973,2.0,327.005155124,24.0008708175,-99999.0,'1111122,1111122,1199999999' 
TABS,ioos:station:wmo:42047:1,2009-02-03T13:30:00Z,27.8966,-93.5973,2.0,328.993013243,25.0027858448,-99999.0,'1111122,1111122,1199999999' 
TABS,ioos:station:wmo:42047:1,2009-02-03T14:00:00Z,27.8966,-93.5973,2.0,321.007309411,24.9991559858,-99999.0,'1111122,1111122,1199999999' 
TABS,ioos:station:wmo:42047:1,2009-02-03T14:30:00Z,27.8966,-93.5973,2.0,350.002641346,24.9995999968,-99999.0,'1111122,1111122,1199999999' 
TABS,ioos:station:wmo:42047:1,2009-02-03T15:00:00Z,27.8966,-93.5973,2.0,345.002153818,25.0016679444,-99999.0,'1111122,1111122,1199999999' 
TABS,ioos:station:wmo:42047:1,2009-02-03T15:30:00Z,27.8966,-93.5973,2.0,347.008344689,29.0023792127,-99999.0,'1111122,1111122,1199999999' 
TABS,ioos:station:wmo:42047:1,2009-02-03T16:00:00Z,27.8966,-93.5973,2.0,346.996180052,27.9980070719,-99999.0,'1111122,1111122,1199999999' 
TABS,ioos:station:wmo:42047:1,2009-02-03T16:30:00Z,27.8966,-93.5973,2.0,351.001846196,28.0046424723,-99999.0,'1111122,1111122,1199999999' 
TABS,ioos:station:wmo:42047:1,2009-02-03T17:00:00Z,27.8966,-93.5973,2.0,345.009532784,30.0009666511,-99999.0,'1111122,1111122,1199999999' 
TABS,ioos:station:wmo:42047:1,2009-02-03T17:30:00Z,27.8966,-93.5973,2.0,350.005938635,31.0004080618,-99999.0,'1111122,1111122,1199999999' 
TABS,ioos:station:wmo:42047:1,2009-02-03T18:00:00Z,27.8966,-93.5973,2.0,322.999131445,27.998073148,-99999.0,'1111122,1111122,1199999999' 
TABS,ioos:station:wmo:42047:1,2009-02-03T18:30:00Z,27.8966,-93.5973,2.0,351.001846196,28.0046424723,-99999.0,'1111122,1111122,1199999999' 
TABS,ioos:station:wmo:42047:1,2009-02-03T19:00:00Z,27.8966,-93.5973,2.0,353.00443387,27.998432099,-99999.0,'1111122,1111122,1199999999' 
TABS,ioos:station:wmo:42047:1,2009-02-03T19:30:00Z,27.8966,-93.5973,2.0,350.992448213,28.9976067978,-99999.0,'1111122,1111122,1199999999' 
TABS,ioos:station:wmo:42047:1,2009-02-03T20:00:00Z,27.8966,-93.5973,2.0,353.007334534,28.995677264,-99999.0,'1111122,1111122,1199999999' 
TABS,ioos:station:wmo:42047:1,2009-02-03T20:30:00Z,27.8966,-93.5973,2.0,356.005542632,30.0028831948,-99999.0,'1111122,1111122,1199999999' 
TABS,ioos:station:wmo:42047:1,2009-02-03T21:00:00Z,27.8966,-93.5973,2.0,357.004696712,31.0023547493,-99999.0,'1111122,1111122,1199999999' 
TABS,ioos:station:wmo:42047:1,2009-02-03T21:30:00Z,27.8966,-93.5973,2.0,357.000261411,30.0011083129,-99999.0,'1111122,1111122,1199999999' 
TABS,ioos:station:wmo:42047:1,2009-02-03T22:00:00Z,27.8966,-93.5973,2.0,353.99420683,28.0037033265,-99999.0,'1111122,1111122,1199999999' 
TABS,ioos:station:wmo:42047:1,2009-02-03T22:30:00Z,27.8966,-93.5973,2.0,356.003686538,31.997801487,-99999.0,'1111122,1111122,1199999999' 
TABS,ioos:station:wmo:42047:1,2009-02-03T23:00:00Z,27.8966,-93.5973,2.0,2.99114550674,32.0036013598,-99999.0,'1111122,1111122,1199999999' 
TABS,ioos:station:wmo:42047:1,2009-02-03T23:30:00Z,27.8966,-93.5973,2.0,4.99696190575,30.9978128261,-99999.0,'1111122,1111122,1199999999' 
TABS,ioos:station:wmo:42047:1,2009-02-04T00:00:00Z,27.8966,-93.5973,2.0,11.9977484425,33.0008787762,-99999.0,'1111122,1111122,1199999999' 
TABS,ioos:station:wmo:42047:1,2009-02-04T00:30:00Z,27.8966,-93.5973,2.0,8.9944709773,29.9988833126,-99999.0,'1111122,1111122,1199999999' 
TABS,ioos:station:wmo:42047:1,2009-02-04T01:00:00Z,27.8966,-93.5973,2.0,14.0003831819,31.0009096641,-99999.0,'1111122,1111122,1199999999' 
TABS,ioos:station:wmo:42047:1,2009-02-04T01:30:00Z,27.8966,-93.5973,2.0,18.0000745969,29.9982299478,-99999.0,'1111122,1111122,1199999999' 
TABS,ioos:station:wmo:42047:1,2009-02-04T02:00:00Z,27.8966,-93.5973,2.0,23.9903159658,22.9965780063,-99999.0,'1111122,1111122,1199999999' 
TABS,ioos:station:wmo:42047:1,2009-02-04T02:30:00Z,27.8966,-93.5973,2.0,29.9975448482,18.0013360615,-99999.0,'1111122,1111122,1199999999' 
TABS,ioos:station:wmo:42047:1,2009-02-04T03:00:00Z,27.8966,-93.5973,2.0,42.006867994,13.0002153828,-99999.0,'1111122,1111122,1199999999' 
TABS,ioos:station:wmo:42047:1,2009-02-04T03:30:00Z,27.8966,-93.5973,2.0,32.9838379073,9.00069441765,-99999.0,'1111122,1111122,1199999999' 
TABS,ioos:station:wmo:42047:1,2009-02-04T04:00:00Z,27.8966,-93.5973,2.0,0.0,5.0,-99999.0,'1111122,1114422,1199999999' 
TABS,ioos:station:wmo:42047:1,2009-02-04T04:30:00Z,27.8966,-93.5973,2.0,180.0,3.0,-99999.0,'1111122,1111122,1199999999' 
TABS,ioos:station:wmo:42047:1,2009-02-04T05:00:00Z,27.8966,-93.5973,2.0,232.996367867,5.99801633876,-99999.0,'1111122,1111122,1199999999' 
TABS,ioos:station:wmo:42047:1,2009-02-04T05:30:00Z,27.8966,-93.5973,2.0,225.0,7.00035713375,-99999.0,'1111122,1111122,1199999999' 
TABS,ioos:station:wmo:42047:1,2009-02-04T06:00:00Z,27.8966,-93.5973,2.0,241.961221417,7.9988249137,-99999.0,'1111122,1111122,1199999999' 
TABS,ioos:station:wmo:42047:1,2009-02-04T06:30:00Z,27.8966,-93.5973,2.0,219.047540562,6.00033332407,-99999.0,'1111122,1111122,1199999999' 
TABS,ioos:station:wmo:42047:1,2009-02-04T07:00:00Z,27.8966,-93.5973,2.0,233.989474598,10.0011249367,-99999.0,'1111122,1111122,1199999999' 
TABS,ioos:station:wmo:42047:1,2009-02-04T07:30:00Z,27.8966,-93.5973,2.0,249.011104924,10.9998409079,-99999.0,'1111122,1111122,1199999999' 
TABS,ioos:station:wmo:42047:1,2009-02-04T08:00:00Z,27.8966,-93.5973,2.0,239.994496671,11.9980040007,-99999.0,'1111122,1111122,1199999999' 
TABS,ioos:station:wmo:42047:1,2009-02-04T08:30:00Z,27.8966,-93.5973,2.0,247.997512014,8.99513757538,-99999.0,'1111122,1111122,1199999999' 
TABS,ioos:station:wmo:42047:1,2009-02-04T09:00:00Z,27.8966,-93.5973,2.0,247.993934363,12.9968996303,-99999.0,'1111122,1111122,1199999999' 
TABS,ioos:station:wmo:42047:1,2009-02-04T09:30:00Z,27.8966,-93.5973,2.0,258.003100692,8.99649376146,-99999.0,'1111122,1111122,1199999999' 
TABS,ioos:station:wmo:42047:1,2009-02-04T10:00:00Z,27.8966,-93.5973,2.0,239.994496671,11.9980040007,-99999.0,'1111122,1111122,1199999999' 
TABS,ioos:station:wmo:42047:1,2009-02-04T10:30:00Z,27.8966,-93.5973,2.0,291.003222711,11.9970829788,-99999.0,'1111122,1111122,1199999999' 
TABS,ioos:station:wmo:42047:1,2009-02-04T11:00:00Z,27.8966,-93.5973,2.0,304.995372593,14.0014927776,-99999.0,'1111122,1111122,1199999999' 
TABS,ioos:station:wmo:42047:1,2009-02-04T11:30:00Z,27.8966,-93.5973,2.0,317.988835533,16.0023810728,-99999.0,'1111122,1111122,1199999999' 
TABS,ioos:station:wmo:42047:1,2009-02-04T12:00:00Z,27.8966,-93.5973,2.0,343.985160315,16.9997558806,-99999.0,'1111122,1111122,1199999999' 
TABS,ioos:station:wmo:42047:1,2009-02-04T12:30:00Z,27.8966,-93.5973,2.0,4.98370017601,16.0004906175,-99999.0,'1111122,1111122,1199999999' 
TABS,ioos:station:wmo:42047:1,2009-02-04T13:00:00Z,27.8966,-93.5973,2.0,356.99097626,16.0020623671,-99999.0,'1111122,1111122,1199999999' 
TABS,ioos:station:wmo:42047:1,2009-02-04T13:30:00Z,27.8966,-93.5973,2.0,340.997426064,30.0051628891,-99999.0,'1111122,1111122,1199999999' 
TABS,ioos:station:wmo:42047:1,2009-02-04T14:00:00Z,27.8966,-93.5973,2.0,350.99758568,33.9988058614,-99999.0,'1111122,1111122,1199999999' 
TABS,ioos:station:wmo:42047:1,2009-02-04T14:30:00Z,27.8966,-93.5973,2.0,356.993823463,40.996415697,-99999.0,'1111122,1111122,1199999999' 
TABS,ioos:station:wmo:42047:1,2009-02-04T15:00:00Z,27.8966,-93.5973,2.0,0.0,45.0,-99999.0,'1111122,1114422,1199999999' 